Spokane Fairchild, WA

8:47 AM PDT on July 20, 2017 (GMT -0700)
Fairchild Air Force Base

Weather History for KSKA - February, 2012

Change the Weather History Date:

Sunday, February 12, 2012

  Actual Average Record
Temperature  
Mean Temperature 34 °F -  
Max Temperature 37 °F 36 °F 57 °F (2015)
Min Temperature 32 °F 23 °F 8 °F (2001)
Degree Days  
Heating Degree Days 30    
Moisture  
Dew Point 35 °F    
Average Humidity 100    
Maximum Humidity 100    
Minimum Humidity 99    
Precipitation  
Precipitation 0.00 in - - ()
Sea Level Pressure  
Sea Level Pressure 30.01 in    
Wind  
Wind Speed 5 mph (SSE)    
Max Wind Speed 9 mph    
Max Gust Speed -    
Visibility 4 miles    
Events Fog , Rain    
Averages and records for this station are not official NWS values.
T = Trace of Precipitation, MM = Missing Value Source: NWS Daily Summary

Daily Weather History Graph

Daily Weather History Graph

Search for Another Location

Airport or City:

Trip Planner

Search our weather history database for the weather conditions in past years. The results will help you decide how hot, cold, wet, or windy it might be!

Date:

Astronomy

Feb. 12, 2012 Rise Set
Actual Time 7:01 AM PST 5:08 PM PST
Civil Twilight 6:29 AM PST 5:40 PM PST
Nautical Twilight 5:53 AM PST 6:16 PM PST
Astronomical Twilight 5:17 AM PST 6:52 PM PST
Moon 11:44 PM PST (2/12) 8:53 AM PST (2/12)
Length of Visible Light 11h 10m
Length of Day
10h 06m
Waning Gibbous, 71% of the Moon is Illuminated
Feb 12
Waning Gibbous
Feb 14
Last Quarter
Feb 21
New
Feb 29
First Quarter
Mar 8
Full

Hourly Weather History & Observations

Time (PST) Temp. Windchill Dew Point Humidity Pressure Visibility Wind Dir Wind Speed Gust Speed Precip Events Conditions
12:35 AM 35.6 °F 31.7 °F 35.6 °F 100% 30.08 in 5.0 mi SSW 4.6 mph - N/A   Light Drizzle
12:38 AM 35.6 °F 32.8 °F 35.6 °F 100% 30.08 in 2.5 mi SSW 3.5 mph - N/A   Light Drizzle
12:40 AM 35.6 °F 32.8 °F 35.6 °F 100% 30.08 in 1.8 mi SSW 3.5 mph - N/A   Light Drizzle
12:42 AM 35.6 °F 31.7 °F 35.6 °F 100% 30.08 in 1.2 mi SSW 4.6 mph - N/A Rain Light Rain
12:45 AM 35.6 °F 31.7 °F 35.6 °F 100% 30.08 in 0.8 mi SSW 4.6 mph - N/A Rain Light Rain
12:50 AM 35.6 °F 32.8 °F 35.6 °F 100% 30.08 in 0.5 mi SSW 3.5 mph - N/A Fog , Rain Light Rain
12:52 AM 35.6 °F 31.7 °F 35.6 °F 100% 30.08 in 0.5 mi SSW 4.6 mph - N/A Fog , Rain Light Rain
12:55 AM 35.1 °F 31.0 °F 35.1 °F 100% 30.08 in 0.5 mi SSW 4.6 mph - 0.00 in Fog , Rain Light Rain
1:49 AM 33.8 °F 30.8 °F 33.8 °F 100% 30.08 in 0.5 mi South 3.5 mph - N/A Fog Light Drizzle
1:50 AM 33.8 °F 29.6 °F 33.8 °F 100% 30.08 in 0.5 mi South 4.6 mph - N/A Fog Light Drizzle
1:51 AM 33.8 °F 29.6 °F 33.8 °F 100% 30.07 in 0.8 mi South 4.6 mph - N/A   Light Drizzle
1:55 AM 34.3 °F 29.2 °F 34.3 °F 100% 30.08 in 0.8 mi South 5.8 mph - 0.00 in   Light Drizzle
1:58 AM 33.8 °F 28.6 °F 33.8 °F 100% 30.07 in 0.8 mi South 5.8 mph - N/A   Overcast
2:05 AM 33.8 °F 29.6 °F 33.8 °F 100% 30.07 in 0.8 mi South 4.6 mph - N/A   Overcast
2:09 AM 35.6 °F 31.7 °F 35.6 °F 100% 30.07 in 1.0 mi South 4.6 mph - N/A   Mist
2:15 AM 35.6 °F 31.7 °F 35.6 °F 100% 30.07 in 1.5 mi South 4.6 mph - N/A   Overcast
2:21 AM 35.6 °F 31.7 °F 35.6 °F 100% 30.07 in 1.2 mi South 4.6 mph - N/A Rain Light Rain
2:35 AM 35.6 °F 31.7 °F 35.6 °F 100% 30.06 in 0.8 mi South 4.6 mph - N/A Rain Light Rain
2:41 AM 35.6 °F 31.7 °F 35.6 °F 100% 30.06 in 1.0 mi South 4.6 mph - N/A Rain Light Rain
2:50 AM 33.8 °F 29.6 °F 33.8 °F 100% 30.06 in 1.0 mi SSE 4.6 mph - N/A   Overcast
2:55 AM 34.5 °F 29.4 °F 34.5 °F 100% 30.06 in 0.8 mi South 5.8 mph - 0.00 in   Overcast
3:01 AM 33.8 °F 29.6 °F 33.8 °F 100% 30.06 in 0.8 mi South 4.6 mph - N/A Rain Light Rain
3:02 AM 33.8 °F 29.6 °F 33.8 °F 100% 30.06 in 0.8 mi South 4.6 mph - N/A Rain Light Rain
3:06 AM 33.8 °F 28.6 °F 33.8 °F 100% 30.06 in 0.8 mi South 5.8 mph - N/A Rain Light Rain
3:13 AM 33.8 °F 28.6 °F 33.8 °F 100% 30.06 in 0.8 mi South 5.8 mph - N/A   Overcast
3:16 AM 33.8 °F 29.6 °F 33.8 °F 100% 30.06 in 0.8 mi South 4.6 mph - N/A   Overcast
3:18 AM 33.8 °F 29.6 °F 33.8 °F 100% 30.05 in 0.8 mi South 4.6 mph - N/A   Overcast
3:23 AM 33.8 °F 28.6 °F 33.8 °F 100% 30.05 in 0.5 mi SSE 5.8 mph - N/A Fog Fog
3:26 AM 33.8 °F 28.6 °F 33.8 °F 100% 30.05 in 0.5 mi South 5.8 mph - N/A Fog Fog
3:32 AM 33.8 °F 28.6 °F 33.8 °F 100% 30.05 in 0.5 mi SSE 5.8 mph - N/A Fog Fog
3:33 AM 33.8 °F 28.6 °F 33.8 °F 100% 30.05 in 0.5 mi SSE 5.8 mph - N/A Fog Light Drizzle
3:36 AM 33.8 °F 28.6 °F 33.8 °F 100% 30.05 in 0.8 mi SSE 5.8 mph - N/A Rain Light Rain
3:41 AM 33.8 °F 29.6 °F 33.8 °F 100% 30.05 in 0.5 mi SSE 4.6 mph - N/A Fog , Rain Light Rain
3:45 AM 33.8 °F 29.6 °F 33.8 °F 100% 30.05 in 0.5 mi South 4.6 mph - N/A Fog , Rain Light Rain
3:46 AM 33.8 °F 29.6 °F 33.8 °F 100% 30.05 in 0.5 mi South 4.6 mph - N/A Fog , Rain Light Rain
3:52 AM 33.8 °F 30.8 °F 33.8 °F 100% 30.05 in 0.5 mi SSE 3.5 mph - N/A Fog Fog
3:55 AM 34.3 °F - 34.3 °F 100% 30.05 in 0.5 mi Calm Calm - 0.00 in Fog Fog
4:13 AM 33.8 °F 30.8 °F 33.8 °F 100% 30.04 in 0.5 mi SSE 3.5 mph - N/A Fog Fog
4:16 AM 33.8 °F 29.6 °F 33.8 °F 100% 30.04 in 0.8 mi SSE 4.6 mph - N/A   Mist
4:24 AM 33.8 °F - 33.8 °F 100% 30.04 in 0.8 mi Calm Calm - N/A   Mist
4:25 AM 33.8 °F 30.8 °F 33.8 °F 100% 30.04 in 0.8 mi South 3.5 mph - N/A   Mist
4:26 AM 33.8 °F 30.8 °F 33.8 °F 100% 30.04 in 0.8 mi South 3.5 mph - N/A   Mist
4:32 AM 33.8 °F 30.8 °F 33.8 °F 100% 30.04 in 1.0 mi South 3.5 mph - N/A   Mist
4:39 AM 33.8 °F 29.6 °F 33.8 °F 100% 30.04 in 0.8 mi South 4.6 mph - N/A Rain Light Rain
4:40 AM 33.8 °F 29.6 °F 33.8 °F 100% 30.04 in 0.8 mi South 4.6 mph - N/A Rain Light Rain
4:43 AM 33.8 °F 29.6 °F 33.8 °F 100% 30.04 in 0.5 mi South 4.6 mph - N/A Fog , Rain Light Rain
4:46 AM 33.8 °F 27.7 °F 33.8 °F 100% 30.04 in 0.5 mi South 6.9 mph - N/A Fog , Rain Light Rain
4:49 AM 33.8 °F 27.7 °F 33.8 °F 100% 30.04 in 0.2 mi South 6.9 mph - N/A Fog , Rain Light Rain
4:54 AM 35.6 °F 29.9 °F 35.6 °F 100% 30.04 in 0.2 mi South 6.9 mph - N/A Fog , Rain Light Rain
4:58 AM 35.6 °F 29.9 °F 35.6 °F 100% 30.04 in 0.2 mi South 6.9 mph - N/A Fog , Rain Light Rain
5:13 AM 35.6 °F 29.9 °F 35.6 °F 100% 30.03 in 0.2 mi South 6.9 mph - N/A Fog , Rain Light Rain
5:29 AM 35.6 °F 30.7 °F 35.6 °F 100% 30.03 in 0.5 mi South 5.8 mph - N/A Fog , Rain Light Rain
5:31 AM 35.6 °F 29.9 °F 35.6 °F 100% 30.03 in 0.5 mi South 6.9 mph - N/A Fog Light Drizzle
5:34 AM 35.6 °F 30.7 °F 35.6 °F 100% 30.03 in 0.5 mi South 5.8 mph - N/A Fog Fog
5:45 AM 35.6 °F 29.2 °F 35.6 °F 100% 30.02 in 0.5 mi South 8.1 mph - N/A Fog , Rain Light Rain
5:55 AM 34.7 °F 28.8 °F 34.7 °F 100% 30.02 in 0.5 mi South 6.9 mph - 0.00 in Fog , Rain Light Rain
6:03 AM 35.6 °F 29.9 °F 35.6 °F 100% 30.02 in 0.5 mi South 6.9 mph - N/A Fog Fog
6:39 AM 35.6 °F 28.6 °F 35.6 °F 100% 30.02 in 0.5 mi South 9.2 mph - N/A Fog Light Drizzle
6:49 AM 33.8 °F 28.6 °F 33.8 °F 100% 30.02 in 0.5 mi South 5.8 mph - N/A Fog Fog
6:55 AM 34.5 °F 29.4 °F 34.5 °F 100% 30.02 in 0.5 mi South 5.8 mph - 0.00 in Fog Fog
7:02 AM 33.8 °F 27.7 °F 33.8 °F 100% 30.02 in 0.5 mi SSE 6.9 mph - N/A Fog Fog
7:05 AM 33.8 °F 29.6 °F 33.8 °F 100% 30.02 in 0.2 mi SSE 4.6 mph - N/A Fog Fog
7:10 AM 33.8 °F 28.6 °F 33.8 °F 100% 30.02 in 0.2 mi SSE 5.8 mph - N/A Fog Fog
7:15 AM 33.8 °F 28.6 °F 33.8 °F 100% 30.02 in 0.5 mi South 5.8 mph - N/A Fog Fog
7:30 AM 33.8 °F 28.6 °F 33.8 °F 100% 30.02 in 0.8 mi South 5.8 mph - N/A   Mist
7:33 AM 33.8 °F 27.0 °F 33.8 °F 100% 30.02 in 1.0 mi South 8.1 mph - N/A   Mist
7:38 AM 33.8 °F 27.0 °F 33.8 °F 100% 30.01 in 1.0 mi South 8.1 mph - N/A   Mist
7:47 AM 33.8 °F 26.4 °F 33.8 °F 100% 30.02 in 2.0 mi South 9.2 mph - N/A   Overcast
7:49 AM 33.8 °F 27.0 °F 33.8 °F 100% 30.02 in 3.0 mi South 8.1 mph - N/A   Overcast
7:55 AM 34.0 °F 26.6 °F 34.0 °F 100% 30.02 in 6.0 mi South 9.2 mph - N/A   Overcast
8:02 AM 33.8 °F 26.4 °F 33.8 °F 100% 30.02 in 2.5 mi South 9.2 mph - N/A   Overcast
8:05 AM 33.8 °F 27.7 °F 33.8 °F 100% 30.01 in 1.2 mi South 6.9 mph - N/A   Overcast
8:09 AM 33.8 °F 26.4 °F 33.8 °F 100% 30.01 in 0.8 mi South 9.2 mph - N/A   Mist
8:21 AM 33.8 °F 27.0 °F 33.8 °F 100% 30.01 in 0.8 mi South 8.1 mph - N/A   Mist
8:22 AM 33.8 °F 26.4 °F 33.8 °F 100% 30.01 in 0.5 mi South 9.2 mph - N/A Fog Fog
8:26 AM 33.8 °F 26.4 °F 33.8 °F 100% 30.01 in 0.5 mi South 9.2 mph - N/A Fog Fog
8:31 AM 33.8 °F 26.4 °F 33.8 °F 100% 30.01 in 0.5 mi South 9.2 mph - N/A Fog Fog
8:34 AM 33.8 °F 26.4 °F 33.8 °F 100% 30.01 in 0.8 mi South 9.2 mph - N/A   Mist
8:37 AM 33.8 °F 27.0 °F 33.8 °F 100% 30.02 in 1.0 mi South 8.1 mph - N/A   Mist
8:40 AM 33.8 °F 27.0 °F 33.8 °F 100% 30.02 in 1.5 mi South 8.1 mph - N/A   Overcast
8:42 AM 33.8 °F 27.0 °F 33.8 °F 100% 30.02 in 2.0 mi South 8.1 mph - N/A   Overcast
8:45 AM 33.8 °F 27.0 °F 33.8 °F 100% 30.02 in 3.0 mi South 8.1 mph - N/A   Overcast
8:49 AM 33.8 °F 28.6 °F 33.8 °F 100% 30.02 in 5.0 mi South 5.8 mph - N/A   Overcast
8:55 AM 34.2 °F 27.5 °F 34.2 °F 100% 30.02 in 5.0 mi South 8.1 mph - N/A   Overcast
9:19 AM 33.8 °F 27.7 °F 33.8 °F 100% 30.01 in 9.0 mi South 6.9 mph - N/A   Overcast
9:55 AM 34.5 °F 28.6 °F 34.5 °F 100% 30.00 in 9.0 mi SSE 6.9 mph - N/A   Overcast
10:22 AM 33.8 °F 27.7 °F 33.8 °F 100% 30.00 in 10.0 mi South 6.9 mph - N/A   Overcast
10:42 AM 35.6 °F 29.9 °F 35.6 °F 100% 30.00 in 10.0 mi SE 6.9 mph - N/A   Overcast
10:55 AM 35.2 °F 29.5 °F 35.2 °F 100% 29.99 in 10.0 mi SSE 6.9 mph - N/A   Overcast
11:02 AM 35.6 °F 29.9 °F 35.6 °F 100% 30.00 in 10.0 mi South 6.9 mph - N/A   Overcast
11:40 AM 35.6 °F 29.2 °F 35.6 °F 100% 29.98 in 10.0 mi SSE 8.1 mph - N/A   Overcast
11:55 AM 36.7 °F 30.5 °F 36.7 °F 100% 29.97 in 10.0 mi SE 8.1 mph - N/A   Overcast
12:14 PM 37.4 °F 30.8 °F 37.4 °F 100% 29.97 in 10.0 mi SSE 9.2 mph - N/A   Overcast
12:25 PM 37.4 °F 30.8 °F 37.4 °F 100% 29.96 in 10.0 mi SSE 9.2 mph - N/A   Overcast
12:55 PM 37.6 °F 31.0 °F 37.6 °F 100% 29.96 in 10.0 mi SSE 9.2 mph - N/A   Overcast
1:21 PM 37.4 °F 32.1 °F 37.4 °F 100% 29.95 in 10.0 mi South 6.9 mph - N/A   Overcast
1:47 PM 37.4 °F 32.8 °F 37.4 °F 100% 29.94 in 10.0 mi SSE 5.8 mph - N/A   Overcast
1:55 PM 37.4 °F 32.8 °F 37.4 °F 100% 29.94 in 10.0 mi SE 5.8 mph - N/A   Overcast
2:04 PM 37.4 °F 33.8 °F 37.4 °F 100% 29.94 in 10.0 mi SSE 4.6 mph - N/A   Overcast
2:10 PM 37.4 °F 33.8 °F 37.4 °F 100% 29.94 in 10.0 mi SSE 4.6 mph - N/A   Overcast
2:12 PM 37.4 °F 33.8 °F 37.4 °F 100% 29.94 in 10.0 mi SE 4.6 mph - N/A   Overcast
2:55 PM 37.8 °F 34.2 °F 37.8 °F 100% 29.94 in 10.0 mi ESE 4.6 mph - N/A   Overcast
3:13 PM 37.4 °F 33.8 °F 37.4 °F 100% 29.93 in 10.0 mi East 4.6 mph - N/A   Overcast
3:55 PM 37.8 °F 34.2 °F 37.8 °F 100% 29.92 in 10.0 mi East 4.6 mph - N/A   Overcast
4:22 PM 37.4 °F 32.8 °F 37.4 °F 100% 29.91 in 10.0 mi East 5.8 mph - N/A   Overcast
4:55 PM 36.9 °F 32.2 °F 36.9 °F 100% 29.91 in 10.0 mi ENE 5.8 mph - N/A   Overcast
5:55 PM 35.6 °F 30.7 °F 35.6 °F 100% 29.90 in 10.0 mi ENE 5.8 mph - N/A   Overcast
6:36 PM 35.6 °F 29.9 °F 35.6 °F 100% 29.89 in 10.0 mi ENE 6.9 mph - N/A   Overcast
6:45 PM 35.6 °F 30.7 °F 35.6 °F 100% 29.89 in 10.0 mi NE 5.8 mph - N/A   Overcast
6:55 PM 34.7 °F 30.6 °F 34.7 °F 100% 29.90 in 10.0 mi NE 4.6 mph - 0.00 in   Overcast
7:01 PM 33.8 °F 27.7 °F 33.8 °F 100% 29.89 in 10.0 mi ENE 6.9 mph - N/A   Overcast
7:10 PM 33.8 °F 28.6 °F 33.8 °F 100% 29.89 in 10.0 mi NE 5.8 mph - N/A   Mostly Cloudy
7:55 PM 32.4 °F 27.9 °F 32.4 °F 100% 29.89 in 10.0 mi ENE 4.6 mph - 0.00 in   Overcast
8:55 PM 33.3 °F 30.2 °F 33.3 °F 100% 29.88 in 10.0 mi ENE 3.5 mph - N/A   Overcast
9:55 PM 33.4 °F 30.4 °F 33.3 °F 99% 29.88 in 10.0 mi ENE 3.5 mph - N/A   Overcast
10:55 PM 33.1 °F 28.7 °F 33.1 °F 100% 29.88 in 10.0 mi NE 4.6 mph - N/A   Overcast
11:33 PM 33.8 °F 28.6 °F 33.8 °F 100% 29.88 in 10.0 mi NE 5.8 mph - N/A   Overcast
11:55 PM 33.3 °F 27.9 °F 33.3 °F 100% 29.88 in 10.0 mi NNE 5.8 mph - 0.00 in   Overcast